Regional Weather Roundup
Issued by NWS

Home | Current Version | Previous Version | Graphics & Text | Print | Product List | Glossary On
Versions: 1 2 3 4 5 6 7 8 9 10 11 12 13 14 15 16 17 18 19 20 21 22 23 24 25 26 27 28 29 30 31 32 33 34 35 36 37 38 39 40 41 42 43 44 45 46 47 48 49 50
000
ASUS43 KOAX 250510
RWRNE

WEATHER ROUNDUP FOR NEBRASKA
NATIONAL WEATHER SERVICE OMAHA NE
1200 AM CDT THU MAY 25 2017

NOTES: SATELLITE DATA IS BEING USED TO AUGMENT CLOUD COVER ABOVE
       12000 FEET.
       "FAIR" INDICATES FEW OR NO CLOUDS BELOW 12,000 FEET WITH NO
       SIGNIFICANT WEATHER AND/OR OBSTRUCTIONS TO VISIBILITY.

  * THESE STATIONS DO NOT REPORT WEATHER SUCH AS RAIN...SNOW OR FOG.

NEZ001>004-019>022-054>056-250600-
NEBRASKA PANHANDLE

CITY           SKY/WX    TMP DP  RH WIND       PRES   REMARKS
SCOTTSBLUFF    CLEAR     69  39  33 W6        29.44F
ALLIANCE       CLEAR     56  46  69 SE5       29.44F
CHADRON        CLEAR     65  46  50 S18G30    29.35S
GORDON         FAIR      62  44  51 S21G32    29.40F
KIMBALL        CLOUDY    56  44  64 W10       29.55S
SIDNEY         CLEAR     55  48  77 S8        29.53R
$$

NEZ057>060-069>072-079>082-250600-
SOUTHWEST NEBRASKA

CITY           SKY/WX    TMP DP  RH WIND       PRES   REMARKS
NORTH PLATTE   CLEAR     58  43  57 SE13G22   29.55S
IMPERIAL       CLEAR     57  45  64 SE16      29.54S
LEXINGTON      CLEAR     56  44  64 SE14      29.59S
MCCOOK         CLEAR     56  44  64 SE14      29.58S
OGALLALA       CLEAR     61  45  54 S17G26    29.50S
$$

NEZ005>010-023>029-035>040-094-250600-
NORTH CENTRAL NEBRASKA

CITY           SKY/WX    TMP DP  RH WIND       PRES   REMARKS
VALENTINE      CLEAR     61  38  42 S21G31    29.47S
AINSWORTH      CLEAR     55  43  64 S20G26    29.50F
BROKEN BOW     CLEAR     54  44  69 SE13      29.58F
O`NEILL        CLEAR     56  41  58 SE15      29.57F
ORD            CLEAR     54  42  64 SE10      29.59S
THEDFORD       CLEAR     57  42  57 SE17      29.52F
$$

NEZ041-046>049-061>064-073>077-083>087-250600-
SOUTH CENTRAL NEBRASKA

CITY           SKY/WX    TMP DP  RH WIND       PRES   REMARKS
GRAND ISLAND   CLEAR     55  46  71 S10       29.64F
AURORA         CLEAR     55  44  66 S8        29.64F
HASTINGS       CLEAR     54  44  69 S9        29.65S
HEBRON         CLEAR     53  46  77 S6        29.66F
HOLDREGE       CLEAR     54  44  68 SE15      29.61F
KEARNEY *      CLEAR     55  43  62 SE15      29.63S
YORK           CLEAR     54  45  71 SE7       29.65F
$$

NEZ011>018-030>034-042>045-250600-
NORTHEAST NEBRASKA

CITY           SKY/WX    TMP DP  RH WIND       PRES   REMARKS
NORFOLK        CLEAR     53  42  66 SE10      29.62F
ALBION         CLEAR     53  43  70 S7        29.63R
BLAIR          CLEAR     55  45  69 SE6       29.67S
FREMONT        CLEAR     53  45  73 SE3       29.67F
TEKAMAH        CLEAR     52  32  46 S3        29.66F
WAYNE          CLEAR     53  43  68 SE10      29.65S
$$

NEZ050>053-065>068-078-088>093-250600-
SOUTHEAST NEBRASKA

CITY           SKY/WX    TMP DP  RH WIND       PRES   REMARKS
LINCOLN        CLEAR     53  45  74 SE5       29.68F
OMAHA EPPLEY   CLEAR     54  44  69 SE3       29.67F
BEATRICE       CLEAR     54  45  72 CALM      29.68S
FALLS CITY     CLEAR     51  46  83 E8        29.69S
NEBRASKA CITY  CLEAR     55  40  57 SE6       29.69S
PLATTSMOUTH    CLEAR     55  48  77 SE5       29.68F
$$

NEZ044-045-051>053-067-250600-
OMAHA AREA

CITY           SKY/WX    TMP DP  RH WIND       PRES   REMARKS
OMAHA EPPLEY   CLEAR     54  44  69 SE3       29.67F
BLAIR          CLEAR     55  45  69 SE6       29.67S
FREMONT        CLEAR     53  45  73 SE3       29.67F
MILLARD        CLEAR     52  48  88 CALM      29.67F
OFFUTT AFB     CLEAR     47  46  95 CALM      29.67F
PLATTSMOUTH    CLEAR     55  48  77 SE5       29.68F
WAHOO          FAIR      51  45  79 S7        29.67F
$$



USA.gov is the U.S. government's official web portal to all federal, state and local government web resources and services.